Weather Roundup
Issued by NWS Springfield, MO

Home | Current Version | Previous Version | Text Only | Print | Product List | Glossary On
Versions: 1 2 3 4 5 6 7 8 9 10 11 12 13 14 15 16 17 18 19 20 21 22 23 24 25 26 27 28 29 30 31 32 33 34 35 36 37 38 39 40 41 42 43 44 45 46 47 48 49 50
000
NZUS99 KSGF 212307
HRRSGF

HOURLY WEATHER
NATIONAL WEATHER SERVICE SPRINGFIELD MO
500 PM CST TUE FEB 21 2017

......SGF CWA......

CITY           SKY/WX    TMP DP  RH WIND       PRES   REMARKS
SPRINGFIELD    CLOUDY    64  58  80 NE8       29.89S
JOPLIN         SUNNY     69  52  54 N12       29.90S
WEST PLAINS    CLOUDY    58  56  93 N5        29.91R
ROLLA          CLOUDY    61  59  93 N6        29.89F
OSAGE BEACH    CLOUDY    64  58  80 E3        29.91R
BRANSON        CLOUDY    57  57 100 N8        29.90R

......SURROUNDING SGF CWA......

CITY           SKY/WX    TMP DP  RH WIND       PRES   REMARKS
CHANUTE        SUNNY     72  44  36 N7        29.90S
PARSONS        SUNNY     73  46  38 N8        29.90F
COFFEYVILLE    SUNNY     73  47  39 N12       29.89F
EMPORIA        SUNNY     70  29  21 NW3       29.90F
GROVE OK       SUNNY     70  54  56 NW9       29.90S
ROGERS AR      CLOUDY    65  55  70 NE9       29.89S
SILOAM SPRINGS CLOUDY    66  50  55 N14       29.88S
HARRISON AR    CLOUDY    58  57  97 N5        29.90R
NEAR YELLVILLE CLOUDY    59  54  82 N6        29.87R

......KANSAS AND MISSOURI......

CITY           SKY/WX    TMP DP  RH WIND       PRES   REMARKS
KANSAS CTY INT MOSUNNY   70  34  26 NW6       29.90S
DOWNTOWN KC    SUNNY     72  37  28 W3        29.88F
COLUMBIA       CLOUDY    67  57  70 E5        29.89S
SEDALIA        CLOUDY    72  50  45 NW6       29.90S
ST JOSEPH      SUNNY     69  32  25 W6        29.89F
ST LOUIS       MOCLDY    66  56  70 E3        29.90S
SPIRIT OF STL  MOCLDY    66  59  78 N7        29.88S
KIRKSVILLE     CLEAR     71  45  39 N6        29.89S
WICHITA        MOSUNNY   69  35  28 S5        29.92F
TOPEKA         SUNNY     70  25  18 CALM      29.89F
OLATHE         SUNNY     71  39  31 NW5       29.90S

......TENNESSEE......

CITY           SKY/WX    TMP DP  RH WIND       PRES   REMARKS
MEMPHIS        CLOUDY    64  58  80 E10       29.85S
NASHVILLE      CLOUDY    64  53  67 S14       29.95R

......ARKANSAS.......

CITY           SKY/WX    TMP DP  RH WIND       PRES   REMARKS
FAYETTEVILLE   CLOUDY    63  54  72 NE7       29.88S
FT SMITH       CLOUDY    70  52  52 N12       29.85R
LITTLE ROCK    LGT RAIN  60  60 100 NW5       29.83S FOG

......OKLAHOMA.......

CITY           SKY/WX    TMP DP  RH WIND       PRES   REMARKS
TULSA          SUNNY     73  47  39 N14       29.87F
PONCA CITY     SUNNY     70  34  26 NW8       29.92F
MCALESTER      SUNNY     73  48  41 NW14      29.89S
OKLAHOMA CITY  SUNNY     70  32  24 N9        29.93F

......IOWA............

CITY           SKY/WX    TMP DP  RH WIND       PRES   REMARKS
DES MOINES     PTCLDY    67  33  28 SW12      29.85F
QUAD CITIES    CLEAR     67  44  43 NW3       29.88S

......ILLINOIS........

CITY           SKY/WX    TMP DP  RH WIND       PRES   REMARKS
QUINCY         PTCLDY    65  57  75 CALM      29.89R
CHICAGO        MOCLDY    64  51  62 SW6       29.89S




USA.gov is the U.S. government's official web portal to all federal, state and local government web resources and services.